QPF
0.07 0.07 0.07 0.08 0.07 0.06 0.06 0.06 0.06 0.07 0.09 0.09 0.08 0.06 0.05 0.03 0.03 0.04 0.05 0.05 0.07 0.09 0.13 0.15 0.15 0.13 0.13 0.10 0.09 0.10 0.11 0.11 0.11 0.09 0.07 0.05 0.05 0.03 0.03 0.02 0.02 0.02 0.02
0.06 0.07 0.10 0.14 0.11 0.07 0.06 0.06 0.06 0.07 0.08 0.09 0.10 0.09 0.08 0.05 0.05 0.04 0.04 0.03 0.05 0.07 0.10 0.14 0.17 0.17 0.13 0.09 0.10 0.16 0.15 0.14 0.16 0.17 0.09 0.06 0.05 0.04 0.03 0.03 0.03 0.03 0.02
0.05 0.05 0.08 0.14 0.18 0.13 0.08 0.07 0.07 0.07 0.06 0.07 0.08 0.09 0.09 0.06 0.05 0.06 0.05 0.03 0.04 0.06 0.09 0.10 0.11 0.13 0.14 0.13 0.12 0.18 0.15 0.13 0.15 0.21 0.12 0.07 0.06 0.05 0.04 0.04 0.05 0.04 0.03
0.04 0.05 0.06 0.08 0.12 0.14 0.13 0.12 0.10 0.08 0.07 0.08 0.09 0.08 0.07 0.06 0.05 0.06 0.04 0.03 0.04 0.05 0.07 0.09 0.11 0.10 0.12 0.13 0.15 0.21 0.21 0.13 0.16 0.22 0.17 0.10 0.07 0.06 0.06 0.07 0.07 0.06 0.04
0.05 0.07 0.05 0.05 0.05 0.07 0.08 0.08 0.08 0.09 0.08 0.09 0.08 0.07 0.06 0.06 0.06 0.05 0.04 0.04 0.07 0.11 0.14 0.10 0.07 0.10 0.14 0.15 0.18 0.21 0.26 0.22 0.19 0.19 0.17 0.09 0.06 0.05 0.06 0.06 0.05 0.05 0.04
0.05 0.04 0.03 0.03 0.02 0.04 0.05 0.06 0.08 0.07 0.07 0.09 0.06 0.05 0.04 0.05 0.06 0.07 0.05 0.05 0.06 0.07 0.09 0.09 0.08 0.10 0.14 0.18 0.21 0.25 0.25 0.25 0.23 0.21 0.17 0.11 0.08 0.05 0.04 0.04 0.04 0.03 0.03
0.06 0.04 0.03 0.04 0.03 0.04 0.04 0.05 0.07 0.07 0.07 0.08 0.07 0.06 0.05 0.04 0.05 0.05 0.06 0.05 0.05 0.04 0.05 0.06 0.06 0.07 0.09 0.10 0.15 0.22 0.26 0.26 0.24 0.19 0.17 0.16 0.14 0.08 0.06 0.04 0.03 0.03 0.03
0.03 0.02 0.04 0.04 0.04 0.05 0.06 0.05 0.06 0.07 0.07 0.08 0.08 0.10 0.09 0.07 0.05 0.03 0.05 0.05 0.05 0.05 0.04 0.03 0.04 0.05 0.05 0.06 0.06 0.09 0.14 0.20 0.23 0.20 0.15 0.12 0.12 0.09 0.06 0.04 0.03 0.02 0.02
0.04 0.03 0.04 0.04 0.05 0.04 0.05 0.07 0.08 0.09 0.09 0.07 0.07 0.09 0.09 0.09 0.08 0.06 0.05 0.05 0.05 0.06 0.06 0.05 0.03 0.04 0.03 0.05 0.06 0.06 0.06 0.08 0.15 0.21 0.20 0.13 0.11 0.10 0.07 0.05 0.04 0.03 0.02
0.04 0.04 0.04 0.05 0.06 0.06 0.07 0.08 0.07 0.08 0.09 0.08 0.07 0.06 0.07 0.08 0.08 0.09 0.06 0.06 0.06 0.07 0.08 0.06 0.05 0.05 0.05 0.05 0.05 0.05 0.03 0.03 0.05 0.12 0.21 0.19 0.13 0.11 0.11 0.08 0.06 0.05 0.04
0.03 0.03 0.03 0.04 0.05 0.06 0.09 0.11 0.10 0.06 0.05 0.06 0.07 0.06 0.07 0.06 0.05 0.06 0.07 0.06 0.05 0.04 0.05 0.05 0.06 0.06 0.06 0.06 0.06 0.04 0.03 0.02 0.03 0.04 0.07 0.12 0.14 0.12 0.11 0.11 0.08 0.06 0.06
0.01 0.02 0.03 0.03 0.03 0.03 0.05 0.09 0.11 0.08 0.06 0.06 0.06 0.06 0.08 0.08 0.06 0.06 0.06 0.05 0.04 0.03 0.02 0.03 0.04 0.05 0.05 0.05 0.04 0.03 0.02 0.03 0.05 0.05 0.04 0.05 0.07 0.10 0.12 0.11 0.11 0.09 0.08
0.01 0.01 0.02 0.03 0.03 0.03 0.03 0.05 0.07 0.09 0.07 0.06 0.06 0.06 0.07 0.08 0.06 0.06 0.07 0.05 0.05 0.05 0.04 0.03 0.03 0.03 0.03 0.05 0.06 0.03 0.02 0.02 0.04 0.04 0.04 0.04 0.04 0.05 0.09 0.11 0.10 0.10 0.08
0.02 0.02 0.02 0.02 0.02 0.02 0.03 0.04 0.06 0.07 0.06 0.06 0.05 0.06 0.06 0.06 0.05 0.05 0.05 0.06 0.07 0.06 0.06 0.06 0.03 0.02 0.03 0.04 0.08 0.08 0.06 0.04 0.06 0.06 0.06 0.05 0.04 0.04 0.05 0.07 0.08 0.08 0.07
0.01 0.01 0.01 0.02 0.02 0.02 0.02 0.02 0.04 0.04 0.04 0.05 0.05 0.07 0.06 0.05 0.04 0.04 0.05 0.07 0.08 0.08 0.07 0.06 0.04 0.02 0.03 0.03 0.04 0.08 0.10 0.08 0.09 0.09 0.07 0.06 0.06 0.05 0.05 0.05 0.06 0.07 0.07
0.01 0.01 0.01 0.02 0.03 0.05 0.05 0.05 0.05 0.03 0.03 0.03 0.04 0.06 0.07 0.07 0.05 0.04 0.05 0.06 0.07 0.08 0.07 0.07 0.04 0.02 0.02 0.02 0.02 0.04 0.09 0.12 0.11 0.09 0.08 0.07 0.06 0.05 0.04 0.04 0.04 0.04 0.06
0.01 0.00 0.00 0.01 0.01 0.02 0.04 0.04 0.04 0.03 0.03 0.03 0.04 0.05 0.06 0.07 0.07 0.07 0.08 0.08 0.08 0.08 0.08 0.06 0.04 0.03 0.03 0.03 0.02 0.03 0.05 0.10 0.10 0.08 0.08 0.07 0.06 0.04 0.03 0.02 0.02 0.03 0.04
0.00 0.00 0.00 0.00 0.01 0.01 0.02 0.02 0.02 0.02 0.03 0.03 0.04 0.05 0.04 0.04 0.04 0.05 0.08 0.11 0.11 0.09 0.07 0.06 0.05 0.04 0.03 0.03 0.03 0.02 0.03 0.03 0.05 0.07 0.07 0.06 0.04 0.02 0.01 0.01 0.01 0.01 0.02
0.01 0.01 0.01 0.01 0.01 0.01 0.03 0.04 0.04 0.02 0.03 0.03 0.03 0.03 0.03 0.03 0.03 0.03 0.05 0.07 0.08 0.06 0.05 0.05 0.05 0.05 0.03 0.02 0.02 0.03 0.03 0.03 0.04 0.04 0.04 0.03 0.02 0.01 0.01 0.01 0.00 0.01 0.01
0.01 0.01 0.01 0.01 0.01 0.01 0.02 0.04 0.05 0.04 0.03 0.04 0.04 0.04 0.03 0.03 0.02 0.03 0.04 0.05 0.05 0.04 0.03 0.03 0.04 0.05 0.04 0.02 0.02 0.02 0.02 0.03 0.03 0.02 0.02 0.02 0.02 0.02 0.01 0.01 0.01 0.01 0.02
0.01 0.02 0.01 0.01 0.01 0.01 0.02 0.03 0.04 0.04 0.04 0.05 0.06 0.06 0.05 0.04 0.03 0.02 0.03 0.04 0.03 0.03 0.02 0.02 0.04 0.05 0.05 0.04 0.04 0.03 0.03 0.03 0.03 0.02 0.02 0.02 0.01 0.01 0.01 0.01 0.01 0.01 0.01
0.01 0.01 0.01 0.01 0.01 0.01 0.00 0.01 0.03 0.04 0.05 0.05 0.06 0.07 0.06 0.06 0.05 0.03 0.02 0.03 0.03 0.02 0.03 0.02 0.02 0.04 0.04 0.05 0.06 0.04 0.04 0.03 0.03 0.02 0.02 0.03 0.03 0.03 0.02 0.02 0.01 0.00 0.00
0.01 0.02 0.02 0.01 0.01 0.01 0.01 0.01 0.02 0.04 0.04 0.05 0.06 0.08 0.07 0.06 0.05 0.04 0.03 0.02 0.02 0.01 0.01 0.02 0.03 0.04 0.05 0.05 0.06 0.06 0.05 0.05 0.04 0.03 0.03 0.04 0.04 0.03 0.02 0.01 0.01 0.01 0.01
0.02 0.02 0.02 0.01 0.01 0.02 0.01 0.00 0.01 0.02 0.04 0.05 0.06 0.08 0.08 0.08 0.07 0.04 0.03 0.02 0.02 0.01 0.01 0.01 0.02 0.03 0.03 0.04 0.04 0.04 0.05 0.04 0.04 0.03 0.03 0.03 0.02 0.01 0.01 0.01 0.01 0.01 0.01
0.03 0.03 0.01 0.01 0.01 0.01 0.01 0.00 0.01 0.02 0.03 0.04 0.05 0.05 0.06 0.06 0.05 0.02 0.02 0.02 0.02 0.01 0.00 0.01 0.01 0.02 0.02 0.02 0.02 0.02 0.04 0.05 0.04 0.03 0.02 0.03 0.02 0.02 0.02 0.02 0.02 0.02 0.02
0.03 0.03 0.03 0.03 0.02 0.02 0.01 0.00 0.01 0.02 0.03 0.04 0.04 0.04 0.03 0.02 0.02 0.01 0.02 0.02 0.03 0.02 0.01 0.01 0.01 0.01 0.01 0.01 0.01 0.02 0.03 0.04 0.04 0.04 0.04 0.05 0.04 0.04 0.04 0.04 0.04 0.03 0.03
MSLP
1011.57 1011.67 1011.72 1011.76 1011.80 1011.86 1011.95 1012.07 1012.21 1012.36 1012.50 1012.63 1012.75 1012.87 1013.01 1013.19 1013.44 1013.76 1014.14 1014.56 1015.01 1015.45 1015.85 1016.22 1016.54 1016.83 1017.12 1017.42 1017.76 1018.13 1018.54 1018.97 1019.40 1019.81 1020.20 1020.54 1020.85 1021.12 1021.35 1021.54 1021.70 1021.82 1021.90
1011.57 1011.69 1011.77 1011.83 1011.88 1011.94 1012.03 1012.15 1012.30 1012.45 1012.60 1012.73 1012.85 1012.95 1013.07 1013.22 1013.43 1013.70 1014.03 1014.42 1014.84 1015.26 1015.67 1016.05 1016.39 1016.71 1017.03 1017.35 1017.70 1018.08 1018.50 1018.94 1019.37 1019.80 1020.19 1020.54 1020.85 1021.11 1021.33 1021.51 1021.66 1021.77 1021.84
1011.60 1011.76 1011.87 1011.94 1012.00 1012.06 1012.15 1012.26 1012.39 1012.54 1012.68 1012.81 1012.91 1013.00 1013.09 1013.21 1013.37 1013.60 1013.89 1014.24 1014.64 1015.05 1015.46 1015.85 1016.21 1016.55 1016.89 1017.22 1017.59 1017.97 1018.39 1018.83 1019.28 1019.70 1020.10 1020.45 1020.76 1021.02 1021.23 1021.40 1021.54 1021.64 1021.71
1011.61 1011.79 1011.92 1012.01 1012.08 1012.14 1012.22 1012.32 1012.43 1012.56 1012.69 1012.80 1012.89 1012.97 1013.04 1013.14 1013.27 1013.46 1013.73 1014.05 1014.43 1014.83 1015.23 1015.63 1016.00 1016.35 1016.69 1017.04 1017.40 1017.79 1018.21 1018.65 1019.09 1019.52 1019.92 1020.27 1020.58 1020.84 1021.05 1021.22 1021.36 1021.46 1021.54
1011.51 1011.73 1011.89 1012.00 1012.07 1012.13 1012.20 1012.28 1012.38 1012.49 1012.60 1012.70 1012.79 1012.86 1012.93 1013.01 1013.13 1013.31 1013.56 1013.86 1014.22 1014.60 1015.00 1015.38 1015.75 1016.10 1016.44 1016.78 1017.14 1017.53 1017.94 1018.38 1018.83 1019.26 1019.67 1020.03 1020.34 1020.59 1020.81 1020.98 1021.13 1021.25 1021.34
1011.30 1011.55 1011.73 1011.86 1011.95 1012.02 1012.07 1012.14 1012.22 1012.32 1012.42 1012.52 1012.61 1012.69 1012.77 1012.87 1013.00 1013.18 1013.41 1013.70 1014.03 1014.39 1014.76 1015.13 1015.47 1015.80 1016.13 1016.46 1016.81 1017.20 1017.61 1018.06 1018.51 1018.95 1019.37 1019.74 1020.06 1020.32 1020.54 1020.73 1020.88 1021.02 1021.12
1011.00 1011.27 1011.49 1011.65 1011.75 1011.83 1011.88 1011.94 1012.01 1012.10 1012.20 1012.30 1012.41 1012.52 1012.63 1012.75 1012.90 1013.08 1013.31 1013.58 1013.89 1014.21 1014.54 1014.86 1015.16 1015.46 1015.76 1016.08 1016.42 1016.81 1017.23 1017.69 1018.16 1018.62 1019.05 1019.44 1019.77 1020.05 1020.27 1020.47 1020.63 1020.78 1020.91
1010.68 1010.98 1011.23 1011.42 1011.54 1011.63 1011.68 1011.74 1011.80 1011.89 1011.99 1012.12 1012.25 1012.39 1012.53 1012.68 1012.85 1013.05 1013.27 1013.51 1013.77 1014.04 1014.31 1014.57 1014.82 1015.07 1015.34 1015.64 1015.98 1016.37 1016.81 1017.29 1017.79 1018.28 1018.73 1019.14 1019.48 1019.77 1020.00 1020.20 1020.38 1020.53 1020.67
1010.42 1010.75 1011.03 1011.24 1011.38 1011.48 1011.54 1011.59 1011.66 1011.74 1011.86 1012.00 1012.15 1012.33 1012.51 1012.69 1012.88 1013.07 1013.27 1013.47 1013.67 1013.87 1014.06 1014.25 1014.43 1014.63 1014.86 1015.14 1015.48 1015.89 1016.35 1016.87 1017.40 1017.92 1018.40 1018.82 1019.18 1019.48 1019.72 1019.92 1020.10 1020.26 1020.40
1010.30 1010.64 1010.94 1011.17 1011.33 1011.43 1011.49 1011.54 1011.59 1011.68 1011.80 1011.95 1012.13 1012.33 1012.54 1012.74 1012.94 1013.12 1013.28 1013.43 1013.56 1013.68 1013.78 1013.88 1013.99 1014.13 1014.33 1014.59 1014.93 1015.36 1015.85 1016.40 1016.96 1017.52 1018.03 1018.48 1018.86 1019.16 1019.41 1019.61 1019.78 1019.94 1020.08
1010.32 1010.67 1010.98 1011.21 1011.36 1011.46 1011.51 1011.54 1011.59 1011.66 1011.78 1011.95 1012.14 1012.36 1012.58 1012.80 1012.99 1013.15 1013.27 1013.36 1013.41 1013.44 1013.45 1013.47 1013.51 1013.60 1013.75 1014.00 1014.34 1014.78 1015.30 1015.88 1016.48 1017.07 1017.61 1018.08 1018.48 1018.79 1019.05 1019.25 1019.42 1019.58 1019.72
1010.46 1010.81 1011.10 1011.32 1011.46 1011.53 1011.55 1011.56 1011.58 1011.65 1011.76 1011.92 1012.13 1012.35 1012.58 1012.80 1012.98 1013.11 1013.19 1013.22 1013.20 1013.15 1013.08 1013.02 1013.00 1013.04 1013.16 1013.39 1013.73 1014.18 1014.72 1015.32 1015.95 1016.56 1017.13 1017.63 1018.04 1018.38 1018.64 1018.85 1019.03 1019.18 1019.32
1010.67 1011.00 1011.27 1011.45 1011.55 1011.58 1011.57 1011.54 1011.54 1011.58 1011.68 1011.83 1012.04 1012.27 1012.50 1012.71 1012.88 1012.98 1013.03 1013.01 1012.94 1012.82 1012.69 1012.58 1012.50 1012.50 1012.59 1012.80 1013.14 1013.59 1014.13 1014.74 1015.38 1016.01 1016.60 1017.12 1017.55 1017.91 1018.20 1018.43 1018.62 1018.78 1018.93
1010.89 1011.19 1011.42 1011.55 1011.60 1011.58 1011.52 1011.46 1011.42 1011.44 1011.52 1011.66 1011.86 1012.08 1012.31 1012.52 1012.68 1012.77 1012.79 1012.74 1012.63 1012.48 1012.31 1012.16 1012.05 1012.02 1012.10 1012.29 1012.60 1013.04 1013.57 1014.17 1014.81 1015.44 1016.03 1016.57 1017.03 1017.42 1017.73 1018.00 1018.21 1018.40 1018.55
1011.08 1011.35 1011.53 1011.61 1011.60 1011.53 1011.43 1011.33 1011.26 1011.25 1011.31 1011.44 1011.63 1011.84 1012.06 1012.26 1012.41 1012.49 1012.50 1012.44 1012.32 1012.16 1011.98 1011.81 1011.69 1011.65 1011.70 1011.87 1012.16 1012.56 1013.06 1013.63 1014.24 1014.86 1015.45 1015.99 1016.48 1016.90 1017.25 1017.55 1017.81 1018.02 1018.20
1011.26 1011.49 1011.62 1011.65 1011.59 1011.48 1011.34 1011.20 1011.11 1011.08 1011.12 1011.24 1011.40 1011.61 1011.81 1012.00 1012.14 1012.21 1012.22 1012.16 1012.05 1011.89 1011.72 1011.56 1011.44 1011.39 1011.43 1011.57 1011.83 1012.18 1012.64 1013.16 1013.72 1014.30 1014.87 1015.40 1015.90 1016.34 1016.73 1017.08 1017.37 1017.62 1017.83
1011.44 1011.64 1011.73 1011.72 1011.64 1011.49 1011.33 1011.17 1011.06 1011.02 1011.04 1011.13 1011.28 1011.45 1011.63 1011.79 1011.92 1011.98 1011.99 1011.94 1011.83 1011.69 1011.54 1011.40 1011.29 1011.24 1011.26 1011.38 1011.59 1011.89 1012.28 1012.73 1013.23 1013.75 1014.27 1014.78 1015.27 1015.72 1016.14 1016.52 1016.85 1017.14 1017.38
1011.67 1011.84 1011.91 1011.88 1011.78 1011.62 1011.45 1011.29 1011.18 1011.12 1011.12 1011.18 1011.29 1011.43 1011.57 1011.69 1011.78 1011.83 1011.82 1011.77 1011.68 1011.55 1011.42 1011.29 1011.20 1011.14 1011.16 1011.24 1011.41 1011.65 1011.96 1012.33 1012.75 1013.19 1013.65 1014.11 1014.57 1015.01 1015.43 1015.82 1016.18 1016.51 1016.79
1011.93 1012.10 1012.16 1012.13 1012.02 1011.88 1011.71 1011.56 1011.44 1011.37 1011.36 1011.39 1011.45 1011.54 1011.62 1011.70 1011.74 1011.75 1011.72 1011.65 1011.56 1011.44 1011.32 1011.20 1011.11 1011.06 1011.05 1011.11 1011.22 1011.40 1011.64 1011.93 1012.26 1012.61 1012.99 1013.38 1013.77 1014.17 1014.57 1014.96 1015.34 1015.69 1016.01
1012.20 1012.36 1012.42 1012.39 1012.31 1012.18 1012.03 1011.90 1011.79 1011.71 1011.68 1011.67 1011.69 1011.73 1011.75 1011.77 1011.76 1011.72 1011.65 1011.56 1011.45 1011.32 1011.20 1011.08 1010.98 1010.92 1010.90 1010.92 1011.00 1011.12 1011.29 1011.49 1011.73 1011.99 1012.28 1012.58 1012.89 1013.23 1013.58 1013.94 1014.31 1014.67 1015.02
1012.38 1012.53 1012.59 1012.58 1012.51 1012.41 1012.29 1012.17 1012.08 1012.01 1011.96 1011.93 1011.91 1011.90 1011.87 1011.84 1011.78 1011.69 1011.59 1011.46 1011.32 1011.17 1011.03 1010.89 1010.78 1010.70 1010.66 1010.65 1010.69 1010.77 1010.88 1011.01 1011.17 1011.35 1011.54 1011.75 1011.97 1012.23 1012.51 1012.82 1013.16 1013.53 1013.90
1012.38 1012.51 1012.57 1012.56 1012.51 1012.43 1012.33 1012.24 1012.16 1012.10 1012.06 1012.02 1011.99 1011.95 1011.90 1011.83 1011.74 1011.63 1011.49 1011.33 1011.16 1010.98 1010.80 1010.64 1010.50 1010.40 1010.33 1010.30 1010.31 1010.35 1010.42 1010.51 1010.61 1010.71 1010.82 1010.94 1011.08 1011.25 1011.45 1011.70 1012.00 1012.35 1012.74
1012.11 1012.21 1012.25 1012.23 1012.19 1012.12 1012.05 1011.99 1011.93 1011.90 1011.87 1011.85 1011.84 1011.81 1011.77 1011.71 1011.62 1011.49 1011.34 1011.17 1010.97 1010.76 1010.54 1010.34 1010.16 1010.02 1009.92 1009.87 1009.86 1009.88 1009.94 1010.00 1010.07 1010.13 1010.18 1010.23 1010.30 1010.38 1010.51 1010.70 1010.95 1011.28 1011.67
1011.55 1011.60 1011.60 1011.57 1011.52 1011.46 1011.41 1011.37 1011.35 1011.35 1011.36 1011.39 1011.43 1011.45 1011.46 1011.45 1011.39 1011.30 1011.16 1010.98 1010.76 1010.52 1010.26 1010.01 1009.79 1009.61 1009.47 1009.39 1009.37 1009.39 1009.44 1009.51 1009.57 1009.62 1009.65 1009.67 1009.68 1009.71 1009.78 1009.91 1010.11 1010.41 1010.79
1010.74 1010.74 1010.70 1010.64 1010.57 1010.51 1010.47 1010.45 1010.47 1010.52 1010.59 1010.69 1010.81 1010.92 1011.01 1011.08 1011.09 1011.05 1010.95 1010.78 1010.56 1010.28 1009.98 1009.68 1009.40 1009.17 1009.00 1008.89 1008.86 1008.88 1008.95 1009.04 1009.12 1009.19 1009.23 1009.24 1009.24 1009.24 1009.27 1009.36 1009.53 1009.79 1010.16
1009.80 1009.74 1009.66 1009.57 1009.48 1009.41 1009.37 1009.38 1009.43 1009.53 1009.68 1009.86 1010.07 1010.28 1010.48 1010.64 1010.74 1010.77 1010.71 1010.57 1010.34 1010.04 1009.70 1009.34 1009.00 1008.71 1008.49 1008.36 1008.31 1008.35 1008.44 1008.56 1008.69 1008.80 1008.88 1008.92 1008.93 1008.94 1008.96 1009.03 1009.17 1009.41 1009.74
Thickness
5758 5758 5756 5754 5755 5754 5753 5752 5751 5749 5747 5747 5748 5747 5747 5747 5746 5745 5742 5738 5737 5736 5736 5736 5736 5735 5734 5733 5732 5731 5730 5729 5728 5727 5725 5724 5723 5723 5721 5720 5719 5717 5717
5756 5755 5754 5753 5754 5753 5752 5750 5749 5748 5747 5747 5746 5745 5745 5745 5744 5743 5742 5739 5737 5736 5736 5736 5736 5735 5733 5732 5731 5730 5729 5728 5727 5726 5725 5724 5723 5721 5720 5719 5717 5716 5715
5754 5753 5753 5752 5752 5751 5750 5749 5748 5747 5746 5746 5744 5744 5744 5743 5743 5742 5741 5741 5739 5736 5735 5735 5734 5733 5732 5732 5731 5730 5729 5728 5727 5726 5724 5723 5722 5720 5719 5718 5716 5715 5714
5752 5751 5751 5751 5750 5750 5749 5748 5747 5745 5744 5743 5742 5743 5743 5741 5741 5740 5740 5740 5739 5739 5736 5734 5733 5732 5732 5731 5730 5730 5729 5729 5728 5726 5723 5722 5720 5719 5718 5716 5715 5714 5712
5750 5749 5749 5748 5748 5748 5748 5747 5745 5744 5741 5741 5741 5741 5741 5740 5739 5740 5739 5739 5737 5737 5737 5734 5733 5732 5731 5730 5730 5729 5728 5728 5727 5726 5723 5721 5719 5718 5716 5715 5714 5712 5711
5748 5747 5747 5745 5746 5746 5745 5743 5741 5740 5739 5739 5741 5740 5740 5739 5739 5738 5738 5738 5736 5736 5736 5736 5733 5732 5730 5729 5729 5728 5727 5727 5726 5724 5722 5720 5719 5717 5715 5714 5713 5711 5710
5745 5744 5746 5743 5743 5743 5742 5741 5739 5737 5737 5738 5736 5735 5737 5739 5738 5737 5738 5738 5737 5736 5735 5734 5734 5733 5731 5729 5728 5727 5726 5725 5723 5722 5721 5720 5718 5716 5715 5713 5711 5710 5708
5745 5745 5743 5743 5742 5740 5738 5737 5736 5735 5736 5735 5733 5731 5730 5731 5734 5738 5736 5736 5736 5736 5735 5734 5733 5732 5731 5731 5728 5726 5724 5723 5722 5721 5720 5719 5717 5715 5713 5712 5710 5708 5707
5743 5742 5741 5741 5739 5740 5737 5734 5733 5732 5731 5732 5733 5730 5726 5724 5728 5732 5733 5733 5733 5733 5733 5733 5732 5731 5730 5730 5728 5725 5724 5722 5721 5720 5719 5718 5716 5714 5712 5711 5709 5707 5705
5742 5740 5738 5737 5736 5737 5734 5733 5733 5731 5729 5729 5730 5729 5728 5727 5723 5724 5728 5730 5730 5730 5730 5731 5732 5730 5729 5728 5726 5724 5722 5720 5719 5719 5718 5716 5715 5713 5712 5710 5708 5706 5704
5739 5738 5736 5735 5734 5734 5732 5730 5729 5729 5730 5728 5727 5727 5726 5725 5726 5722 5719 5722 5726 5728 5728 5727 5727 5728 5727 5726 5725 5723 5721 5719 5717 5716 5715 5714 5713 5711 5710 5708 5706 5705 5703
5738 5736 5734 5733 5732 5731 5729 5728 5727 5727 5726 5725 5726 5726 5725 5723 5722 5721 5719 5718 5720 5723 5724 5724 5725 5725 5725 5724 5722 5720 5718 5716 5714 5713 5712 5712 5710 5709 5707 5706 5704 5702 5701
5735 5732 5733 5730 5730 5728 5727 5726 5725 5725 5724 5723 5723 5724 5724 5724 5724 5722 5719 5718 5717 5719 5719 5721 5722 5722 5722 5721 5719 5716 5714 5713 5712 5711 5710 5709 5707 5706 5705 5703 5702 5700 5698
5734 5731 5729 5727 5727 5726 5725 5724 5724 5723 5722 5722 5722 5721 5721 5721 5721 5720 5718 5716 5713 5714 5714 5714 5718 5718 5718 5717 5714 5712 5712 5710 5708 5708 5706 5705 5704 5703 5702 5701 5699 5697 5696
5730 5727 5725 5723 5723 5722 5721 5721 5721 5720 5719 5719 5719 5718 5718 5719 5719 5718 5716 5714 5710 5707 5708 5710 5712 5714 5713 5712 5710 5709 5708 5706 5705 5704 5702 5701 5700 5699 5698 5697 5695 5694 5692
5725 5723 5721 5719 5718 5718 5717 5716 5717 5716 5715 5715 5715 5713 5713 5714 5714 5714 5713 5712 5711 5707 5705 5708 5708 5709 5707 5708 5705 5705 5704 5702 5701 5700 5699 5698 5696 5695 5694 5692 5691 5689 5688
5720 5718 5716 5715 5714 5713 5712 5711 5712 5712 5711 5711 5710 5710 5708 5708 5708 5708 5707 5706 5706 5704 5701 5702 5705 5704 5701 5700 5700 5700 5700 5700 5699 5697 5695 5693 5691 5690 5689 5688 5687 5685 5684
5716 5714 5712 5710 5710 5709 5708 5707 5706 5706 5706 5705 5705 5704 5703 5703 5701 5701 5701 5700 5699 5698 5697 5694 5696 5697 5696 5695 5694 5694 5696 5697 5695 5692 5690 5688 5687 5685 5684 5683 5682 5681 5680
5711 5710 5708 5706 5705 5704 5703 5702 5701 5701 5700 5700 5699 5698 5697 5696 5695 5695 5694 5694 5694 5694 5692 5691 5691 5691 5691 5691 5689 5689 5691 5689 5690 5689 5686 5684 5682 5681 5679 5678 5677 5676 5675
5705 5704 5702 5701 5701 5700 5699 5698 5696 5695 5694 5693 5693 5692 5692 5691 5690 5689 5689 5687 5687 5686 5686 5685 5685 5685 5684 5684 5683 5682 5683 5684 5684 5685 5682 5680 5678 5676 5675 5674 5673 5672 5671
5700 5698 5696 5696 5696 5695 5694 5693 5691 5690 5688 5687 5687 5686 5686 5683 5682 5681 5683 5682 5681 5680 5680 5680 5679 5679 5678 5676 5675 5677 5676 5676 5677 5678 5677 5677 5677 5676 5674 5671 5670 5668 5667
5693 5691 5691 5690 5690 5690 5685 5683 5683 5683 5682 5682 5681 5680 5680 5678 5675 5673 5672 5671 5671 5672 5673 5673 5672 5670 5669 5670 5670 5670 5669 5668 5668 5671 5670 5670 5672 5672 5671 5670 5667 5665 5662
5686 5684 5684 5684 5683 5680 5677 5675 5674 5676 5676 5675 5675 5673 5675 5674 5671 5670 5667 5665 5664 5662 5661 5663 5665 5663 5662 5663 5661 5662 5661 5660 5660 5663 5663 5664 5665 5664 5666 5665 5661 5659 5657
5679 5678 5678 5678 5677 5675 5671 5669 5668 5669 5670 5670 5669 5668 5667 5666 5665 5663 5663 5662 5661 5660 5657 5657 5657 5657 5657 5655 5654 5654 5653 5653 5654 5656 5656 5655 5658 5658 5660 5658 5655 5653 5651
5673 5673 5674 5673 5672 5670 5665 5663 5661 5665 5664 5664 5664 5663 5661 5660 5656 5654 5656 5656 5655 5653 5651 5649 5648 5648 5646 5645 5645 5647 5647 5647 5648 5651 5651 5649 5651 5651 5652 5652 5650 5647 5645
5669 5669 5668 5668 5666 5665 5661 5658 5655 5661 5660 5660 5658 5657 5653 5653 5649 5647 5650 5650 5648 5648 5648 5646 5643 5642 5641 5640 5638 5639 5641 5642 5642 5643 5644 5642 5643 5643 5642 5645 5644 5642 5640